Hourly Data Report for September 11, 2017

All times are specified in Local Standard Time (LST). Add 1 hour to adjust for Daylight Saving Time where and when it is observed.

QUEBEC/JEAN LESAGE INTL
QUEBEC

46°48'13.000" N
71°22'54.000" W
60.00 m
701S001
71714
WQB

Download Data

Hourly Data (September 2017)
Hourly Data Report for September 11, 2017
Temp Definition
°C
Dew Point Temp Definition
°C
Rel Hum Definition
%
Wind Dir Definition
10's deg

Wind Spd Definition
km/h
Visibility Definition
km
Stn Press Definition
kPa
Hmdx Definition


Wind Chill Definition


Weather Definition


TIME
00:00 7.4 6.9 97 32 4   101.77     LegendNANA
01:00 7.5 7.1 98 33 4   101.77     LegendNANA
02:00 7.2 6.9 98 31 2   101.76     LegendNANA
03:00 6.5 6.3 99 29 4   101.76     LegendNANA
04:00 5.5 5.3 99 30 2   101.77     LegendNANA
05:00 6.6 6.4 98 27 9   101.75     LegendNANA
06:00 7.3 7.1 99 16 2   101.80     LegendNANA
07:00 11.0 9.6 91 24 3   101.78     LegendNANA
08:00 14.0 11.1 83 22 4   101.72     LegendNANA
09:00 16.5 11.7 73 18 7   101.66     LegendNANA
10:00 19.5 12.0 62 22 4   101.61     LegendNANA
11:00 20.3 13.1 63 22 9   101.55     LegendNANA
12:00 20.8 12.9 61 23 12   101.48     LegendNANA
13:00 22.3 11.6 51 22 14   101.38     LegendNANA
14:00 23.0 8.9 41 26 20   101.28     LegendNANA
15:00 22.9 11.0 47 26 20   101.23 25   LegendNANA
16:00 21.5 13.4 60 24 17   101.19 25   LegendNANA
17:00 19.9 13.6 67 24 12   101.17     LegendNANA
18:00 17.8 12.2 70 23 10   101.14     LegendNANA
19:00 16.0 11.9 77 22 5   101.18     LegendNANA
20:00 15.4 12.3 82 20 7   101.13     LegendNANA
21:00 14.7 12.0 84 18 4   101.08     LegendNANA
22:00 14.4 12.4 88 22 6   101.02     LegendNANA
23:00 12.6 11.1 91 29 5   100.99     LegendNANA

Notes on Data Quality.

Legend

  • E = Estimated
  • M = Missing
  • NA = Not Available
  • ‡ = Partner data that is not subject to review by the National Climate Archives
Date modified: